STARLINK-1695, 46329

Orbit data source: Space-Track

STARLINK-1695, 46329 is a payload satellite owned by SpaceX/Seattle (US) in LEO that was launched on Thu, 03 Sep 2020 UTC via an FALCON 9 launch vehicle from the Air Force Eastern Test Range (AFETR). Payload-class satellites include a variety of spacecraft equipped with specific instruments for various scientific and technological missions. These include communications satellites like Starlink; space stations such as the ISS; scientific satellites like the Hubble; Earth observation satellites from companies like Planet Labs, Umbra, and HawkEye 360; GPS; miniature CubeSats for education and research; and military/defense satellites.

Loading next visibility...
Identifier
46329, 2020-062E
Orbit
LEO
Last TLE update
9 hours ago
Origin
Manufacturer
SpaceX/Seattle
Mission
Operational Commercial Communications
Bus & Motor
STARLINK, Unknown motor
Mass
260 kg wet, ~248 kg dry
Launch date (UTC)
2020-09-03 (5 years ago)
Launch vehicle
FALCON 9
Launch site
Air Force Eastern Test Range (AFETR)
Object type
Payload
Rocket body
Debris
Shape & HBR
Box + 1 Pan, 8.86 m
Radar Cross Section
13.562 m², Large (>1 m²)

Expand to show TLE details & history

TLE from 9 hours ago
0 STARLINK-1695
1 46329U 20062E   25187.53857906 -.00000226  00000-0  37468-5 0  9994
2 46329  53.0562  21.6320 0001385  86.7489 273.3658 15.06396294267486
Epoch: 2025-07-06T12:55Z
TLE epoch observation values (Epoch: 2025-07-06T12:55:33.23Z)
Latitude
-0.00007°
Longitude
-97.01734°
Altitude
548.046 km
Speed
7.589 km/s
True Right ascension
01h 26m 31s
True Declination
0° 00' 00"
Sunlit
Object was in daylight at epoch
Visualization orbit readout
Latitude
-32.55786°
Longitude
109.83365°
Altitude
558.026 km
Speed
7.582 km/s
Apparent Right ascension
18h 09m 07s
Apparent Declination
-48° 07' 09"
Sunlit
Object is in full shadow
Visualization observer readout
Local Sidereal Time
09:52:10
Azimuth
120.88° SE
Elevation
-49.979°
Doppler factor
1
Orbital elements
Apogee altitude
548.453 km
Perigee altitude
546.534 km
Semi-major axis
6,925.63 km
Eccentricity
0.00014
Inclination
53.0562°
RAAN
21.632°
Arg. of periapsis
86.7489°
True anomaly
Unknown
Mean anomaly
273.3658°
Eccentric anomaly
Unknown
Mean motion
3.76577 °/min
Orbital period
95.6 mins
BSTAR
0.0000037468
Loading maneuver chart data...
Loading SW <> Apogee altitude chart data...
Loading historical data...
Loading historical data...
Loading historical data...
Loading historical data...
Loading historical data...
Loading historical data...
Loading historical data...

STARLINK-1695 Visibility forecast

Observer location: undefined°, undefined°

Span
Click to sort rows by Start time (UTC) header in descending order
Start Az.
Max El. time (UTC)
Max El. Az.
Max El.
End time (UTC)
End Az.
8 mins2025-07-06 22:59:08.533Z303.511° NW2025-07-06 23:03:08.533Z222.135° SW41.213°2025-07-06 23:07:08.533Z143.594° SSE
5 mins2025-07-07 14:34:08.533Z168.776° S2025-07-07 14:36:08.533Z126.838° SE22.791°2025-07-07 14:39:08.533Z76.249° E
6 mins2025-07-07 16:13:08.533Z262.688° W2025-07-07 16:15:08.533Z315.707° NNW35.898°2025-07-07 16:19:08.533Z40.337° NE
5 mins2025-07-07 21:15:08.533Z341.447° N2025-07-07 21:17:08.533Z28.132° NE27.229°2025-07-07 21:20:08.533Z87.005° E
|